Résultats de la compétition "1/2 Finale zone S-E championnat de France" du 17-06-2007 organisée par le club 0406
     
  Télécharger le fichier CSV.  
     
     

 Circuit "B Bis"

Licence Nom Prénom Temps CN
précédent
Score sur
la course
Différence
1593DELENNEPierre1:07:21N/A6066N/A
787MASONIBruno1:14:29N/A5485N/A
2427CABIANCAJ-Pierre1:14:54N/A5455N/A
3101LONGAAlain1:26:38N/A4716N/A
7877VANDEWEEGHEVincent1:30:13N/A4529N/A
3546GIBIATFrederic1:30:40N/A4506N/A
484MERMINEric1:32:27N/A4419N/A
761POMETEric1:33:49N/A4355N/A
9179ALESSANDRIPierre1:33:58N/A4348N/A
8104ABELCelie-Anne1:36:13N/A4246N/A
1658SPANIERLuc1:37:20N/A4197N/A
2683MOUILLONLaurent1:39:09N/A4121N/A
11717MANCISPhilippe1:39:20N/A4113N/A
2443PEANBruno1:40:03N/A4084N/A
16492CARRIEREOlivier1:40:31N/A4065N/A
10517ROGERJ-Pierre1:40:38N/A4060N/A
3203DESBRESTPatrick1:40:56N/A4048N/A
12503PETETINJ-Louis1:41:43N/A4017N/A
9460MONTEMONTPatrice1:42:10N/A3999N/A
8773GRATIENJacques1:43:44N/A3939N/A
465LOPEZAlain1:44:09N/A3923N/A
17711MOTHEPierre1:44:14N/A3920N/A
9462BOUCHETJ-Michel1:49:43N/A3724N/A
1100SCHIAVOGilles1:50:56N/A3683N/A
12055POUPARDAlain1:53:27N/A3601N/A
13245POYARDJ-Claude1:53:40N/A3594N/A
10374LONGAPatrice1:54:01N/A3583N/A
9767MATASSONIGeorges1:54:24N/A3571N/A
10499LENNHOLMMorten1:55:07N/A3549N/A
6256FABREGATPascal1:55:57N/A3524N/A
16931BOYERPatrick1:58:26N/A3450N/A
851VALLATGerard2:11:53N/A3098N/A
7258PELLOUXGerard2:17:39N/A2968N/A
17860GUSTAFSSONTommi2:18:41N/A2946N/A
16174BREDOUXBruno2:19:02N/A2939N/A
10798SIONNEAUMarc2:33:32N/A2661N/A
8733COULIERFrancois2:41:28N/A2530N/A
17032DURBESSONPhilippe2:42:06N/A2520N/A
16448VARELAPatrick3:08:48N/A2164N/A
17897TROISOEUFSPhilippe3:37:28N/A1879N/A
17790PICAZOJ-Jacques3:48:01N/A1792N/A
4837D'HARREVILLEKarineN/AN/A0N/A

  Indice de confiance du circuit (moyenne des différences entre CN et score sur la course des 3 à 10 premiers) : 149






 Retour